Retour au catalogue

STARLINK-35341

ActifCommunicationsVLEO
NORAD 66027·PAYLOAD·🇺🇸 United States

Lancé Oct 16, 2025 depuis Cape Canaveral Space Force Station

Loading…

Prochains Passages (prochaines 24 heures)

TLE

FraisSource: CelesTrak SupGP

Époque: Sep 15, 2026, 03:18 UTC

1 66027C 25232Y   26258.13798611  .00025129  00000+0  74215-3 0  2582
2 66027  53.1578 300.8706 0001079  96.3677 280.3504 15.34390875    19

Suivez STARLINK-35341 en temps réel avec AllMySat

Download on the App Store